Weather History for Charlottesville, VA

Change the Weather History Date:

Saturday, May 25, 2013

  Actual Average Record
Temperature  
Mean Temperature 55 °F 66 °F  
Max Temperature 69 °F 77 °F 91 °F (1904)
Min Temperature 40 °F 54 °F 40 °F (2013)
Degree Days  
Heating Degree Days 10 2  
Month to date heating degree days 130 110  
Since 1 July heating degree days 4189 4422  
Cooling Degree Days 0 3  
Month to date cooling degree days 66 44  
Year to date cooling degree days 110 65  
Growing Degree Days 4 (Base 50)    
Moisture  
Dew Point 30 °F    
Average Humidity 43    
Maximum Humidity 65    
Minimum Humidity 21    
Precipitation  
Precipitation 0.00 in 0.15 in 1.19 in (2009)
Month to date precipitation 4.35 3.08  
Year to date precipitation 16.63 15.57  
Sea Level Pressure  
Sea Level Pressure 30.18 in    
Wind  
Wind Speed 7 mph (NNW)    
Max Wind Speed 20 mph    
Max Gust Speed 29 mph    
Visibility 10 miles    
Events      
T = Trace of Precipitation, MM = Missing Value Source: NWS Daily Summary

Daily Weather History Graph

Daily Weather History Graph

Search for Another Location

Airport:

Trip Planner

Search our weather history database for the weather conditions in past years. The results will help you decide how hot, cold, wet, or windy it might be!

Date:

Astronomy

May. 25, 2013 Rise Set
Actual Time 5:55 AM EDT 8:26 PM EDT
Civil Twilight 5:25 AM EDT 8:56 PM EDT
Nautical Twilight 4:47 AM EDT 9:34 PM EDT
Astronomical Twilight 4:05 AM EDT 10:16 PM EDT
Moon 9:12 PM EDT (5/25) 6:20 AM EDT (5/25)
Length of Visible Light 15h 31m
Length of Day
14h 30m
Full, 100% of the Moon is Illuminated
May 25
Full
May 31
Last Quarter
Jun 8
New
Jun 16
First Quarter
Jun 23
Full

Hourly Weather History & Observations

Time (EDT) Temp. Windchill Dew Point Humidity Pressure Visibility Wind Dir Wind Speed Gust Speed Precip Events Conditions
12:53 AM 48.0 °F - 28.9 °F 48% 30.18 in 10.0 mi Variable 5.8 mph - N/A   Clear
1:53 AM 45.0 °F 43.5 °F 28.9 °F 53% 30.19 in 10.0 mi Variable 3.5 mph - N/A   Clear
2:53 AM 44.1 °F - 28.0 °F 53% 30.20 in 10.0 mi Calm Calm - N/A   Clear
3:53 AM 41.0 °F 37.1 °F 30.0 °F 65% 30.20 in 10.0 mi NNW 5.8 mph - N/A   Clear
4:53 AM 43.0 °F 40.3 °F 28.9 °F 58% 30.21 in 10.0 mi Variable 4.6 mph - N/A   Clear
5:53 AM 42.1 °F 37.1 °F 28.0 °F 58% 30.23 in 10.0 mi NNW 8.1 mph - N/A   Clear
6:53 AM 44.1 °F 40.1 °F 28.0 °F 53% 30.24 in 10.0 mi North 6.9 mph - N/A   Clear
7:53 AM 46.0 °F 40.6 °F 28.9 °F 51% 30.26 in 10.0 mi NNW 11.5 mph 18.4 mph N/A   Clear
8:53 AM 48.9 °F - 30.0 °F 48% 30.24 in 10.0 mi North 9.2 mph - N/A   Clear
9:53 AM 50.0 °F - 28.0 °F 43% 30.22 in 10.0 mi North 8.1 mph - N/A   Clear
10:53 AM 53.1 °F - 30.0 °F 41% 30.21 in 10.0 mi Calm Calm - N/A   Clear
11:53 AM 60.1 °F - 30.9 °F 33% 30.20 in 10.0 mi North 8.1 mph - N/A   Clear
12:53 PM 63.0 °F - 30.9 °F 30% 30.18 in 10.0 mi NNW 11.5 mph 20.7 mph N/A   Clear
1:53 PM 64.9 °F - 33.1 °F 31% 30.16 in 10.0 mi NW 8.1 mph - N/A   Clear
2:53 PM 68.0 °F - 28.0 °F 22% 30.14 in 10.0 mi NNW 8.1 mph 16.1 mph N/A   Clear
3:53 PM 68.0 °F - 27.0 °F 21% 30.11 in 10.0 mi NNW 17.3 mph 26.5 mph N/A   Clear
4:53 PM 68.0 °F - 27.0 °F 21% 30.12 in 10.0 mi NW 17.3 mph 25.3 mph N/A   Clear
5:53 PM 66.9 °F - 32.0 °F 27% 30.13 in 10.0 mi North 9.2 mph 18.4 mph N/A   Clear
6:53 PM 64.9 °F - 34.0 °F 32% 30.13 in 10.0 mi North 5.8 mph - N/A   Clear
7:53 PM 61.0 °F - 35.1 °F 38% 30.16 in 10.0 mi North 4.6 mph - N/A   Clear
8:53 PM 59.0 °F - 32.0 °F 36% 30.15 in 10.0 mi NNW 8.1 mph - N/A   Clear
9:53 PM 57.9 °F - 32.0 °F 37% 30.17 in 10.0 mi Calm Calm - N/A   Clear
10:53 PM 55.9 °F - 33.1 °F 42% 30.19 in 10.0 mi Calm Calm - N/A   Clear
11:53 PM 53.1 °F - 35.1 °F 50% 30.19 in 10.0 mi Calm Calm - N/A   Clear